Location: Brachbach
(49.1847°N, 9.7240°E)
Time: 08:23:18
(UTC+00:00)

FO-29 - Pass Details

Date: 18 March 2026
Orbit: 801 x 1320 km, 98.5° (Epoch: 17 April)

Event Time Altitude Azimuth Distance (km) Brightness Sun altitude
Rises 18:16:09 0° 22° (NNE) 4,170 12.6 -8.2°
Reaches altitude 10° 18:19:32 10° 37° (NE) 3,261 12.0 -8.8°
Maximum altitude 18:25:19 23° 87° (E) 2,482 11.0 -9.7°
Drops below altitude 10° 18:31:12 10° 136° (SE) 3,343 11.8 -10.6°
Sets 18:34:40 0° 150° (SSE) 4,301 12.5 -11.2°
